Regional Weather Roundup
Issued by NWS Goodland, KS

Home | Current Version | Previous Version | Graphics & Text | Print | Product List | Glossary On
Versions: 1 2 3 4 5 6 7 8 9 10 11 12 13 14 15 16 17 18 19 20 21 22 23 24 25 26 27 28 29 30 31 32 33 34 35 36 37 38 39 40 41 42 43 44 45 46 47 48 49 50
000
ASUS43 KGLD 291459
RWRGLD

GOODLAND FORECAST AREA HOURLY WEATHER ROUNDUP
NATIONAL WEATHER SERVICE GOODLAND KS
900 AM MDT TUE JUL 29 2014

...OFFICIAL OBSERVATIONS...

CITY           SKY/WX    TMP DP  RH WIND       PRES   REMARKS
GOODLAND KS    PTSUNNY   74  63  68 S12       30.23R
HILL CITY KS   NOT AVBL
IMPERIAL NEB   MOSUNNY   68  57  68 E10       30.24R
MCCOOK NEB     SUNNY     71  57  61 SE10      30.24R
AKRON CO       SUNNY     73  58  59 SE9       30.24S
BURLINGTON CO  SUNNY     69  62  78 S12       30.23S
LIMON CO       SUNNY     67  60  78 S6        30.28S
$$

...UNOFFICIAL OBSERVATIONS...

CITY           SKY/WX    TMP DP  RH WIND       PRES   REMARKS
COLBY KS       SUNNY     73  64  73 SE7       30.24R
LENORA KS        N/A     72  32  23 MISG        N/A
NORTON KS      MOSUNNY   73  52  46 E12       30.23S
SHARON SPRINGS   N/A     73  65  75 S12G18      N/A
WAKEENEY KS      N/A     73  53  49 MISG        N/A
KIT CARSON CO    N/A     66  62  86 CALM        N/A
$$


USA.gov is the U.S. government's official web portal to all federal, state and local government web resources and services.